Voltar ao catálogo

FENGYUN 1C DEB

AtivoPO
NORAD 31098·DEBRIS·🇨🇳 China

Lançado May 10, 1999 de Taiyuan Satellite Launch Center

Loading…

Próximas Passagens (próximas 24 horas)

TLE

AtualizadoSource: Space-Track

Época: Sep 13, 2026, 20:48 UTC

1 31098U 99025BGU 26256.86684869  .00008088  00000-0  17776-2 0  9996
2 31098  98.8800  36.7016 0013802 139.0433 221.1803 14.57746047  9591

Acompanhe FENGYUN 1C DEB em tempo real com AllMySat

Download on the App Store